• Em Portugal
  • Lista de países
  • Para 7 dias
  • Temperatura da água
  • Mapas de satélite
  • Mapa do tempo
  • Widgets de tempo
  • user-avatar
    Iniciar Sessão

    Previsão horária em Amshanka

    Hoje, 21 Julho, Sábado

    Tempo Temperatura Precipitação Vento Pressão Humidade
    00:00 +20°C° 0 mm 1 m/s 745 mmHg 97%
    01:00 +20°C° 0 mm 1 m/s 745 mmHg 98%
    02:00 +17°C° 0 mm 0 m/s 745 mmHg 98%
    03:00 +17°C° 0 mm 0 m/s 745 mmHg 98%
    04:00 +17°C° 0 mm 0 m/s 745 mmHg 98%
    05:00 +18°C° 0 mm 0 m/s 746 mmHg 98%
    06:00 +19°C° 0 mm 0 m/s 746 mmHg 94%
    07:00 +20°C° 0 mm 0 m/s 746 mmHg 90%
    08:00 +22°C° 0 mm 0 m/s 746 mmHg 86%
    09:00 +25°C° 0,2 mm 1 m/s 746 mmHg 81%
    10:00 +26°C° 0,2 mm 1 m/s 746 mmHg 76%
    11:00 +27°C° 0,2 mm 1 m/s 746 mmHg 71%
    12:00 +28°C° 0,5 mm 1 m/s 746 mmHg 70%
    13:00 +28°C° 0,5 mm 1 m/s 746 mmHg 69%
    14:00 +29°C° 0,5 mm 1 m/s 746 mmHg 68%
    15:00 +28°C° 1 mm 1 m/s 746 mmHg 72%
    16:00 +28°C° 1 mm 1 m/s 746 mmHg 76%
    17:00 +27°C° 1 mm 1 m/s 746 mmHg 80%
    18:00 +26°C° 0,7 mm 1 m/s 746 mmHg 84%
    19:00 +25°C° 0,7 mm 1 m/s 746 mmHg 87%
    20:00 +23°C° 0,7 mm 1 m/s 746 mmHg 90%
    21:00 +23°C° 0,1 mm 1 m/s 747 mmHg 91%
    22:00 +22°C° 0,1 mm 1 m/s 747 mmHg 92%
    23:00 +21°C° 0,1 mm 1 m/s 747 mmHg 93%

    Amanhã, 22 Julho, Domingo

    Tempo Temperatura Precipitação Vento Pressão Humidade
    00:00 +21°C° 0,1 mm 1 m/s 747 mmHg 94%
    01:00 +21°C° 0,1 mm 1 m/s 747 mmHg 95%
    02:00 +21°C° 0,1 mm 1 m/s 747 mmHg 96%
    03:00 +21°C° 0,8 mm 1 m/s 747 mmHg 97%
    04:00 +21°C° 0,8 mm 1 m/s 747 mmHg 97%
    05:00 +21°C° 0,8 mm 1 m/s 747 mmHg 98%
    06:00 +22°C° 0,5 mm 1 m/s 747 mmHg 96%
    07:00 +22°C° 0,5 mm 1 m/s 748 mmHg 94%
    08:00 +23°C° 0,5 mm 1 m/s 748 mmHg 92%
    09:00 +24°C° 1,5 mm 1 m/s 748 mmHg 90%
    10:00 +25°C° 1,5 mm 2 m/s 748 mmHg 89%
    11:00 +26°C° 1,5 mm 2 m/s 748 mmHg 87%
    12:00 +25°C° 1,4 mm 2 m/s 748 mmHg 88%
    13:00 +25°C° 1,4 mm 2 m/s 748 mmHg 89%
    14:00 +25°C° 1,4 mm 2 m/s 748 mmHg 90%
    15:00 +25°C° 1 mm 2 m/s 748 mmHg 90%
    16:00 +24°C° 1 mm 2 m/s 748 mmHg 91%
    17:00 +24°C° 1 mm 2 m/s 748 mmHg 91%
    18:00 +23°C° 0,5 mm 2 m/s 748 mmHg 92%
    19:00 +23°C° 0,5 mm 2 m/s 748 mmHg 93%
    20:00 +22°C° 0,5 mm 1 m/s 748 mmHg 94%
    21:00 +21°C° 0,1 mm 1 m/s 748 mmHg 95%
    22:00 +21°C° 0,1 mm 1 m/s 748 mmHg 95%
    23:00 +20°C° 0,1 mm 1 m/s 748 mmHg 96%

    Depois de amanhã, 23 Julho, Segunda-feira

    Tempo Temperatura Precipitação Vento Pressão Humidade
    00:00 +20°C° 0,1 mm 1 m/s 749 mmHg 97%
    01:00 +19°C° 0,1 mm 2 m/s 749 mmHg 97%
    02:00 +19°C° 0,1 mm 2 m/s 749 mmHg 97%
    03:00 +20°C° 0,1 mm 1 m/s 749 mmHg 98%
    04:00 +20°C° 0,1 mm 1 m/s 749 mmHg 98%
    05:00 +20°C° 0,1 mm 1 m/s 749 mmHg 98%
    06:00 +20°C° 0,1 mm 2 m/s 749 mmHg 96%
    07:00 +21°C° 0,1 mm 2 m/s 749 mmHg 93%
    08:00 +21°C° 0,1 mm 2 m/s 749 mmHg 91%
    09:00 +24°C° 0,5 mm 2 m/s 749 mmHg 85%
    10:00 +25°C° 0,5 mm 3 m/s 749 mmHg 79%
    11:00 +26°C° 0,5 mm 3 m/s 749 mmHg 72%
    12:00 +26°C° 0,9 mm 3 m/s 749 mmHg 75%
    13:00 +26°C° 0,9 mm 3 m/s 749 mmHg 78%
    14:00 +26°C° 0,9 mm 3 m/s 748 mmHg 81%
    15:00 +26°C° 0,3 mm 3 m/s 748 mmHg 78%
    16:00 +26°C° 0,3 mm 3 m/s 749 mmHg 75%
    17:00 +26°C° 0,3 mm 3 m/s 749 mmHg 72%
    18:00 +24°C° 0 mm 2 m/s 749 mmHg 77%
    19:00 +23°C° 0 mm 2 m/s 749 mmHg 82%
    20:00 +20°C° 0 mm 2 m/s 749 mmHg 88%
    21:00 +19°C° 0 mm 2 m/s 749 mmHg 90%
    22:00 +18°C° 0 mm 2 m/s 749 mmHg 93%
    23:00 +18°C° 0 mm 1 m/s 749 mmHg 96%

    24 Julho, Terça-feira

    Tempo Temperatura Precipitação Vento Pressão Humidade
    00:00 +18°C° 0 mm 1 m/s 749 mmHg 97%
    01:00 +17°C° 0 mm 2 m/s 749 mmHg 97%
    02:00 +16°C° 0 mm 2 m/s 749 mmHg 98%
    03:00 +16°C° 0 mm 2 m/s 750 mmHg 98%
    04:00 +17°C° 0 mm 2 m/s 750 mmHg 98%
    05:00 +17°C° 0 mm 2 m/s 750 mmHg 97%
    06:00 +18°C° 0 mm 2 m/s 750 mmHg 94%
    07:00 +18°C° 0 mm 2 m/s 750 mmHg 90%
    08:00 +19°C° 0 mm 2 m/s 750 mmHg 86%
    09:00 +20°C° 0 mm 2 m/s 750 mmHg 84%
    10:00 +20°C° 0 mm 2 m/s 750 mmHg 82%
    11:00 +21°C° 0 mm 2 m/s 750 mmHg 80%
    12:00 +21°C° 0 mm 2 m/s 750 mmHg 79%
    13:00 +21°C° 0 mm 2 m/s 750 mmHg 77%
    14:00 +23°C° 0 mm 2 m/s 750 mmHg 76%
    15:00 +23°C° 0 mm 2 m/s 750 mmHg 76%
    16:00 +23°C° 0 mm 2 m/s 750 mmHg 76%
    17:00 +23°C° 0 mm 2 m/s 750 mmHg 76%
    18:00 +21°C° 0 mm 2 m/s 751 mmHg 81%
    19:00 +20°C° 0 mm 2 m/s 751 mmHg 85%
    20:00 +20°C° 0 mm 2 m/s 751 mmHg 90%
    21:00 +19°C° 0 mm 2 m/s 751 mmHg 93%
    22:00 +18°C° 0 mm 2 m/s 751 mmHg 95%
    23:00 +18°C° 0 mm 2 m/s 751 mmHg 98%

    25 Julho, Quarta-feira

    Tempo Temperatura Precipitação Vento Pressão Humidade
    00:00 +17°C° 0 mm 2 m/s 751 mmHg 98%
    01:00 +17°C° 0 mm 2 m/s 751 mmHg 98%
    02:00 +17°C° 0 mm 2 m/s 751 mmHg 99%
    03:00 +17°C° 0,2 mm 2 m/s 751 mmHg 98%
    04:00 +17°C° 0,2 mm 2 m/s 751 mmHg 98%
    05:00 +18°C° 0,2 mm 2 m/s 751 mmHg 98%
    06:00 +19°C° 0,3 mm 2 m/s 751 mmHg 97%
    07:00 +19°C° 0,3 mm 2 m/s 751 mmHg 95%
    08:00 +20°C° 0,3 mm 2 m/s 751 mmHg 93%
    09:00 +21°C° 0,3 mm 3 m/s 751 mmHg 90%
    10:00 +22°C° 0,3 mm 3 m/s 751 mmHg 87%
    11:00 +24°C° 0,3 mm 3 m/s 751 mmHg 84%
    12:00 +25°C° 0,4 mm 3 m/s 751 mmHg 83%
    13:00 +25°C° 0,4 mm 3 m/s 751 mmHg 82%
    14:00 +25°C° 0,4 mm 4 m/s 751 mmHg 81%
    15:00 +23°C° 0,5 mm 4 m/s 751 mmHg 84%
    16:00 +22°C° 0,5 mm 3 m/s 751 mmHg 87%
    17:00 +21°C° 0,5 mm 3 m/s 751 mmHg 90%
    18:00 +21°C° 0,1 mm 3 m/s 752 mmHg 91%
    19:00 +20°C° 0,1 mm 3 m/s 752 mmHg 92%
    20:00 +19°C° 0,1 mm 2 m/s 752 mmHg 94%
    21:00 +19°C° 0 mm 3 m/s 752 mmHg 94%
    22:00 +19°C° 0 mm 3 m/s 752 mmHg 94%
    23:00 +19°C° 0 mm 3 m/s 752 mmHg 94%

    26 Julho, Quinta-feira

    Tempo Temperatura Precipitação Vento Pressão Humidade
    00:00 +19°C° 0,1 mm 3 m/s 752 mmHg 95%
    01:00 +19°C° 0,1 mm 3 m/s 752 mmHg 95%
    02:00 +19°C° 0,1 mm 3 m/s 752 mmHg 96%
    03:00 +19°C° 0 mm 3 m/s 752 mmHg 96%
    04:00 +19°C° 0 mm 3 m/s 752 mmHg 96%
    05:00 +19°C° 0 mm 3 m/s 752 mmHg 95%
    06:00 +19°C° 0 mm 3 m/s 752 mmHg 94%
    07:00 +20°C° 0 mm 3 m/s 752 mmHg 93%
    08:00 +20°C° 0 mm 3 m/s 753 mmHg 91%
    09:00 +20°C° 0 mm 3 m/s 753 mmHg 90%
    10:00 +21°C° 0 mm 3 m/s 753 mmHg 89%
    11:00 +21°C° 0 mm 3 m/s 753 mmHg 88%
    12:00 +22°C° 0 mm 3 m/s 753 mmHg 86%
    13:00 +22°C° 0 mm 3 m/s 753 mmHg 84%
    14:00 +24°C° 0 mm 3 m/s 753 mmHg 83%
    15:00 +25°C° 0,1 mm 3 m/s 754 mmHg 81%
    16:00 +25°C° 0,1 mm 2 m/s 754 mmHg 79%
    17:00 +26°C° 0,1 mm 2 m/s 754 mmHg 77%
    18:00 +25°C° 0,1 mm 2 m/s 754 mmHg 82%
    19:00 +24°C° 0,1 mm 2 m/s 754 mmHg 87%
    20:00 +23°C° 0,1 mm 2 m/s 754 mmHg 92%
    21:00 +23°C° 0 mm 2 m/s 754 mmHg 93%
    22:00 +21°C° 0 mm 2 m/s 754 mmHg 95%
    23:00 +21°C° 0 mm 2 m/s 754 mmHg 97%
    Mostrar mais